Location: Clarion
(42.7316°N, 93.7330°W)
Time: 09:12:45
(UTC+00:00)

Cosmos 1674 Rocket - Pass Details

Date: 22 April 2026
Orbit: 596 x 621 km, 82.5° (Epoch: 16 May)

Event Time Altitude Azimuth Distance (km) Brightness Sun altitude
Rises 02:49:28 0° 348° (NNW) 2,865 7.8 -18.0°
Reaches altitude 10° 02:51:42 10° 346° (NNW) 1,960 6.9 -18.3°
Maximum altitude 02:55:59 64° 265° (W) 674 3.8 -18.9°
Enters shadow 02:58:36 23° 189° (S) 1,307 4.9 -19.3°
